www.pogodaiklimat.ru

Погода и климат >> Архив погоды >> Украина >> Раздельная


ПОГОДА в Раздельной

  • Прогноз погоды в Раздельной
  • Монитор погоды в Раздельной

АРХИВ ПОГОДЫ в Раздельной

Время (UTC), дата Ветер
(напр.,м/с)
 
Видим.   Явления Облачность Т
(С)
Тd
(С)
f
(%)
Тe
(С)
Тes
(С)
Комфортность P
(гПа)
Po
(гПа)
Тmin
(С)
Tmax
(С)
R
(мм)
R24
(мм)
S
(см)
12 18.06 СВ 2 10 км 6/6 870 м
[Cu hum]
+30.9 +15.2 39 +33 +40 душно 1014.2 997.6
15 18.06 СВ 3 10 км 3/3 600 м
[Cu hum]
+31.3 +13.5 34 +33 +35 жарко 1012.6 995.9
18 18.06 С 3 10 км 4/4 600 м
[Cu hum]
+27.2 +19.7 64 +33 +33 очень
душно
1013.3 996.4 +32.7
21 18.06 СВ 2 10 км ясно +24.3 +18.3 69 +29 +29 душно 1014.6 997.5
00 19.06 СВ 3 10 км зарница 3/3 600 м
[Sc diur, vesp]
+22.3 +18.1 77 +27 +27 душно 1014.4 997.4
03 19.06 С 3 10 км 3/3 600 м
[Sc diur, vesp]
+21.1 +17.2 78 +25 +25 комфорт 1014.7 997.4
06 19.06 В 4 10 км ясно +25.7 +17.0 59 +30 +35 душно 1014.4 997.4 +21.1
12 19.06 В 3 10 км 6/6 600 м
[Cu hum]
+30.9 +14.8 38 +33 +38 душно 1012.7 996.2
18 19.06 СВ 2 10 км 3/3 600 м
[Cu hum]
+28.3 +15.9 47 +31 +31 душно 1011.6 994.8 +31.7
21 19.06 СВ 3 20 км ясно +24.6 +15.8 58 +28 +28 душно 1012.5 995.4
00 20.06 СВ 2 20 км 3/0
[Ci fib]
+22.5 +15.7 65 +26 +26 жарко 1012.9 995.9
03 20.06 СВ 2 10 км 4/0
[Ci fib]
+21.4 +15.4 69 +25 +25 комфорт 1012.6 995.4
06 20.06 СВ 3 10 км 10/0
[Ci fib]
+25.9 +16.7 57 +30 +35 душно 1012.4 995.4 +21.4
09 20.06 С 3 10 км 10/3 600 м
[Cu hum Ci fib]
+30.6 +14.3 37 +32 +41 жарко 1011.8 995.1
12 20.06 С 2 10 км 10/6 600 м
[Cu med, cong Ci fib]
+31.5 +14.8 36 +33 +38 жарко 1010.6 994.1
15 20.06 Ю 4 9000 м гроза, ливневой дождь 10/10 630 м
[Cb calv]
+33.2 +13.9 31 +34 +34 очень
жарко
1009.9 993.4
18 20.06 10 км гроза без осадков {ливн. осадки} н/о +21.8 +19.0 84 +27 +27 душно 1011.6 994.4 +33.6 8
21 20.06 В 1 10 км {гроза} 9/0
[Ac trans]
+23.2 +18.1 73 +29 +29 душно 1012.1 995.0
00 21.06 СВ 2 10 км {гроза} ясно +22.5 +16.9 71 +27 +27 душно 1012.4 995.4
03 21.06 В 2 10 км 4/0
[Ac trans]
+21.6 +15.1 67 +25 +25 комфорт 1013.2 996.0
06 21.06 В 2 10 км 4/0
[Ac trans]
+25.4 +16.9 59 +29 +35 душно 1013.7 996.7 +21.6
09 21.06 Ю 3 10 км 6/3 600 м
[Cu med, cong Ac trans]
+30.9 +16.3 41 +34 +42 душно 1013.7 997.0
12 21.06 Ю 2 10 км 8/6 840 м
[Cu hum Ci fib]
+32.9 +14.6 33 +34 +40 очень
жарко
1012.7 996.3
15 21.06 ЮЗ 3 10 км 10/6 840 м
[Cu hum Ci fib]
+32.4 +14.5 34 +34 +35 очень
жарко
1012.3 995.7
18 21.06 СЗ 1 10 км 10/5 600 м
[Sc diur, vesp Ci fib]
+27.9 +17.3 53 +32 +32 душно 1013.1 996.2 +33.7
21 21.06 С 2 20 км 4/0
[Ci fib]
+25.5 +17.4 61 +30 +30 душно 1014.0 997.0
00 22.06 С 2 20 км 3/3 600 м
[Sc]
+24.6 +17.6 65 +29 +29 душно 1013.8 996.9
03 22.06 СВ 2 10 км 4/4 600 м
[Sc]
+22.7 +16.9 70 +27 +28 душно 1014.2 997.0
06 22.06 В 2 10 км 3/3 600 м
[Cu hum]
+28.1 +14.3 43 +30 +36 жарко 1014.6 997.7 +22.7
09 22.06 штиль 0 10 км 8/4 600 м
[Cu hum Ac trans]
+30.3 +16.4 43 +34 +42 очень
душно
1014.8 998.0
12 22.06 ЮВ 2 10 км 6/6 840 м
[Cu hum]
+33.1 +12.5 29 +34 +40 очень
жарко
1014.0 997.5
15 22.06 В 1 10 км 8/8 840 м
[Cu hum]
+33.5 +12.0 27 +34 +35 очень
жарко
1013.1 996.5
18 22.06 СЗ 1 10 км 9/9 720 м
[Sc]
+27.6 +13.6 42 +29 +29 жарко 1014.0 997.1 +34.9
21 22.06 СВ 1 10 км 10/10 750 м
[Sc]
+26.7 +15.2 49 +29 +29 жарко 1014.4 997.4
00 23.06 СВ 1 10 км 9/9 750 м
[Sc]
+24.3 +14.8 55 +27 +27 жарко 1014.6 997.7
06 23.06 ЮЗ 1 10 км 3/0
[As op]
+26.2 +19.0 65 +31 +38 очень
душно
1015.1 998.1 +22.3
12 23.06 В 2 10 км 8/8 840 м
[Cu hum]
+31.1 +13.0 33 +32 +35 жарко 1013.7 997.2
18 23.06 С 2 10 км 8/3 600 м
[Sc diur, vesp Ci fib]
+25.3 +15.6 55 +28 +28 жарко 1013.8 996.8 +32.9
00 24.06 СВ 1 10 км ясно +21.3 +15.1 68 +24 +24 комфорт 1014.7 997.5
06 24.06 С 2 10 км ясно +24.4 +16.6 62 +28 +36 душно 1015.2 998.1 +21.3
12 24.06 СВ 4 10 км 10/10 750 м
[Sc]
+29.6 +15.0 41 +32 +32 душно 1016.4 999.7
18 24.06 С 4 10 км 10/10 750 м
[Sc diur, vesp]
+25.6 +16.9 59 +29 +29 душно 1017.2 1000.1 +29.6
00 25.06 С 4 10 км 4/0
[Ci fib]
+23.2 +18.3 74 +29 +29 душно 1017.4 1000.4
06 25.06 СВ 5 10 км 4/0
[Ci fib]
+25.2 +19.0 69 +30 +34 душно 1019.2 1002.1 +21.9

 

Местоположение метеостанции Раздельная (Одесская область, Украина): широта 46.85 долгота 30.08 высота над уровнем моря 148 м.

В архиве по умолчанию представлена погода в Раздельной за последнюю неделю. Архивные данные за месяц целиком и за предыдущие месяцы, начиная с января 2011 года, Вы можете получить, выбрав интересующий диапазон дат из раскрывающегося списка и нажав кнопку "Ввод!".


*Определитесь, кто Вы:
робот инопланетянин человек

Внимание! Время в таблицах - всемирное. Для получения местного времени необходимо прибавить поправку, которая равна 2 ч.

Смотрите также архив погоды в соседних городах и на ближайших метеорологических станциях:

Погода в Заставе (Одесская область, Украина) (8 км)
Погода в Тирасполе (Молдова) (37 км)
Погода в Сербке (Одесская область, Украина) (54 км)
Погода в Затишье (Одесская область, Украина) (55 км)
Погода в Штефан Водэ (Молдова) (59 км)
Погода в Ильичевске (Одесская область, Украина) (69 км)
Погода в Одессе (Одесская область, Украина) (70 км)
Погода в Белгород-Днестровском (Одесская область, Украина) (78 км)
Погода в Балцате (Молдова) (83 км)
Погода в Кишиневе (Молдова) (86 км)

Пояснения к столбцам:

Ветер - указаны скорость ветра в м/с - средняя за 10 мин, порывы в срок и между сроками (в фигурных скобках) и направление, откуда дует ветер: С - северный, СВ - северо-восточный, В - восточный, ЮВ - юго-восточный, Ю - южный, ЮЗ - юго-западный, З - западный, СЗ - северо-западный.
Видимость - горизонтальная дальность видимости в метрах или километрах. При видимости от 1 до 10 км при отсутствии осадков обычно наблюдается дымка, при ухудшении видимости до 1 км и менее - туман. В сухую погоду видимость может ухудшаться дымом, пылью или мглою.
Явления - указаны атмосферные явления, наблюдавшиеся в срок или в последний час перед сроком; фигурными скобками обозначены явления, наблюдавшиеся между сроками (за 1-3 часа до срока); квадратными скобками обозначены град или гололедные отложения с указанием их диаметра в мм.
Облачность - указаны через наклонную черту общая и нижняя облачность в баллах и высота нижней границы облаков в метрах; квадратными скобками обозначены формы облаков: Ci - перистые, Cs - перисто-слоистые, Cc - перисто-кучевые, Ac - высококучевые, As - высокослоистые, Sc - слоисто-кучевые, Ns - слоисто-дождевые, Cu - кучевые, Cb - кучево-дождевые. Подробнее классификацию облаков см. в Атласе облаков (PDF).
T - Температура воздуха - температура, измеренная на высоте 2 м над землей.
Td - Температура точки росы - температура, при понижении до которой содержащийся в воздухе водяной пар достигнет насыщения.
f - Относительная влажность воздуха - влажноcть воздуха, измеренная на высоте 2 м над землей.
Te - Эффективная температура - температура, которую ощущает одетый по сезону человек в тени. Характеристика душности погоды. При расчете учитывается влияние влажности воздуха и скорости ветра на теплоощущения человека.
Tes - Эффективная температура на солнце - температура, которую ощущает человек, с поправкой на солнечный нагрев. Характеристика знойности погоды. Зависит от высоты солнца над горизонтом, облачности и скорости ветра. Ночью, в пасмурную погоду, а также при ветре 12 м/с и более поправка равна нулю.
P - Атмосферное давление - приведенное к уровню моря атмосферное давление.
Po - Атмосферное давление - измеренное на уровне метеостанции атмосферное давление.
Tmin - Минимальная температура - минимум температуры воздуха на высоте 2 м над землей.
Tmax - Максимальная температура - максимум температуры воздуха на высоте 2 м над землей.
R - Количество осадков - Количество выпавших осадков за период времени, мм. При наведении курсора мыши на число - период времени, за который выпало указанное количество осадков.
R24 - Количество осадков - Количество выпавших осадков за 24 часа, мм.
S - Снежный покров - Высота снежного покрова, см. При наведении курсора мыши на число - состояние снежного покрова и степень покрытия местности в баллах.